User: anonymous   Login
Location: Unspecified
(0.0000°N, 0.0000°E)
Time: 08:54:07
(UTC+00:00)
Language:

STARLINK-3711 - Orbit

View from above orbital plane
View from above orbital plane
View from above satellite
View from above satellite

Ground track
Ground track

The orbit is defined by the following mean orbital elements,

1 52131U          26145.52334191 +.00000000 +00000-0 +10471-2 0 00006
2 52131  53.2134  78.7219 0003905  82.3359 277.8081 15.17417924    07
Epoch (UTC): 25 May 2026 12:33:36
Eccentricity: 0.0003905
inclination: 53.2134°
perigee height: 511 km
apogee height: 516 km
right ascension of ascending node: 78.7219°
argument of perigee: 82.3359°
revolutions per day: 15.17417924
mean anomaly at epoch: 277.8081°

The dashed part of the orbit path shows where the satellite is in the earth's shadow,  

DLR